Vorticity
nan nan nan nan nan nan nan nan nan nan nan nan nan nan nan nan nan nan nan nan nan nan nan nan nan nan nan nan nan nan nan nan nan nan nan nan nan nan nan nan nan nan nan
nan 11 12 10 10 9 8 8 8 8 10 11 9 10 9 8 9 9 8 9 8 7 8 9 9 9 9 9 9 8 9 9 8 8 9 10 9 9 10 8 8 8 nan
nan 12 12 13 13 11 11 12 11 11 9 10 10 8 7 8 9 9 9 8 9 9 9 8 9 8 8 9 9 8 9 9 9 8 8 9 9 9 10 10 9 9 nan
nan 12 11 11 11 12 14 14 15 16 14 12 10 10 9 9 8 10 10 9 9 9 9 9 10 9 8 8 9 9 9 9 9 8 8 9 9 8 9 8 9 8 nan
nan 8 8 9 9 9 9 11 13 13 15 16 16 13 10 10 9 9 9 9 8 9 9 10 10 11 9 5 5 8 9 7 8 10 9 9 8 8 10 10 8 9 nan
nan 9 8 8 8 8 8 9 9 9 9 11 13 16 16 13 11 12 11 10 10 9 9 10 10 10 11 13 10 8 5 6 6 8 8 8 9 10 9 7 8 9 nan
nan 11 10 9 9 10 9 7 8 8 8 9 8 10 13 10 13 20 17 12 12 11 9 9 10 11 14 13 14 15 13 12 6 5 8 7 8 8 7 8 9 8 nan
nan 10 11 11 10 9 9 9 8 8 9 8 9 12 12 8 13 15 17 17 13 14 14 15 14 11 11 15 15 14 13 14 16 11 8 6 5 7 7 7 8 10 nan
nan 9 10 11 11 10 8 9 9 10 9 9 12 12 10 4 9 18 18 16 14 10 11 12 14 13 4 10 15 13 12 12 13 13 11 9 10 11 8 9 10 7 nan
nan 10 10 10 11 11 11 9 10 11 13 12 13 7 8 4 3 17 20 14 8 9 9 7 6 5 8 9 11 10 10 9 6 10 14 16 14 14 16 8 7 9 nan
nan 9 10 11 10 10 12 11 12 12 13 12 8 9 7 4 5 6 18 18 11 11 8 7 3 2 10 13 12 9 7 8 12 12 12 12 12 13 14 14 11 8 nan
nan 9 9 11 11 11 10 10 11 11 9 10 9 8 6 4 3 4 11 10 15 15 10 7 3 6 12 13 11 9 12 15 12 11 11 10 11 12 11 12 13 11 nan
nan 10 10 10 10 11 10 10 10 10 10 10 10 10 8 7 2 3 7 8 14 14 10 10 10 10 11 11 10 13 16 14 11 11 11 12 11 10 11 13 13 14 nan
nan 9 10 10 10 11 11 10 11 11 11 11 9 11 9 8 8 7 8 8 9 9 10 13 14 16 13 10 11 13 12 11 11 11 11 12 11 12 13 12 12 13 nan
nan 9 10 10 10 10 9 12 12 12 15 12 12 12 10 8 7 9 10 11 12 11 14 12 9 11 12 12 11 10 10 11 11 11 11 13 13 12 13 14 14 11 nan
nan 10 10 10 10 11 10 6 8 11 9 12 14 14 10 5 8 10 9 11 13 19 19 10 9 9 9 9 9 11 10 9 11 10 11 11 11 10 12 14 15 14 nan
nan 11 10 10 10 10 10 11 7 5 6 5 7 9 8 8 10 10 13 15 15 16 12 10 10 9 9 11 10 9 9 7 10 12 10 9 10 8 8 10 11 11 nan
nan 10 8 10 10 10 10 10 10 10 8 7 7 4 5 9 10 11 16 18 11 11 10 9 9 10 10 9 9 9 10 11 10 10 10 9 8 9 8 9 8 7 nan
nan 9 10 10 10 10 9 9 10 10 10 10 11 8 7 10 12 10 12 13 10 9 9 10 10 10 10 10 10 10 10 10 11 13 11 10 9 10 10 9 7 8 nan
nan 11 6 8 9 8 9 9 9 9 9 9 10 9 9 11 10 11 11 10 10 9 9 9 10 10 10 11 10 10 9 10 12 11 11 12 12 11 10 11 12 12 nan
nan 11 8 6 9 9 8 8 8 8 9 9 9 7 8 11 9 10 10 10 10 10 10 10 11 11 10 10 11 11 11 11 10 10 10 10 13 13 11 9 8 10 nan
nan 10 9 9 9 10 9 8 9 8 8 8 9 9 12 11 10 10 10 10 10 10 10 10 10 11 11 10 10 10 11 12 13 11 9 10 11 11 10 10 10 10 nan
nan 10 9 9 11 10 8 9 9 9 8 8 8 10 12 10 9 9 10 10 10 11 11 11 10 10 10 11 12 12 11 10 10 10 10 12 12 11 10 11 13 12 nan
nan 10 9 9 10 9 9 9 9 9 8 8 9 9 9 9 8 8 10 11 10 10 11 10 8 9 11 11 10 8 9 9 8 6 11 12 10 8 10 12 12 11 nan
nan 10 10 10 10 10 10 9 9 10 9 9 9 9 8 9 8 8 9 10 11 10 8 10 9 8 7 9 10 8 8 8 9 10 14 12 11 14 15 12 8 11 nan
nan nan nan nan nan nan nan nan nan nan nan nan nan nan nan nan nan nan nan nan nan nan nan nan nan nan nan nan nan nan nan nan nan nan nan nan nan nan nan nan nan nan nan
CAPE
61 17 112 197 276 296 246 334 468 400 262 131 215 369 538 710 879 905 672 744 834 885 850 944 1080 806 870 716 961 1042 939 719 1167 1421 837 1452 1470 1570 1629 1512 1236 1853 1408
173 165 93 138 280 370 302 362 572 759 337 87 268 467 550 383 672 904 901 970 541 846 884 802 696 855 991 774 957 1302 972 1051 1081 1264 969 1085 1268 1272 1159 1208 1366 1290 1324
6 97 194 175 293 302 445 585 619 717 566 224 177 183 106 130 310 556 711 880 807 822 508 886 750 743 1035 884 869 862 763 915 932 1136 1212 783 886 741 1140 1300 1303 1414 897
35 44 27 59 1 58 157 216 306 561 765 360 228 251 177 138 51 32 399 918 923 910 747 814 884 830 834 1076 945 1006 786 881 867 894 846 720 701 1067 797 856 1121 999 1030
33 15 32 34 3 3 2 1 19 101 311 504 472 350 261 125 142 331 516 799 1069 1147 1086 1005 1001 898 775 814 1432 1655 1217 1239 1208 1085 997 830 1007 1047 1158 954 838 842 939
28 20 1 17 3 0 9 1 0 0 0 1 238 382 451 594 845 554 590 1083 1227 1309 1562 1469 1277 836 947 754 339 105 503 1589 1670 1172 1563 1390 1551 967 907 855 832 986 1149
2 2 4 0 2 0 0 0 0 0 0 0 16 22 62 176 1 1 0 288 908 951 973 1012 967 1046 887 1083 933 626 191 8 165 1575 1468 1560 1388 1322 969 1015 915 552 896
0 0 1 4 4 3 0 0 0 0 0 0 0 6 84 18 1 1 1 72 270 150 224 297 389 462 50 16 334 897 1061 1083 781 226 315 912 1155 1138 777 1030 942 521 380
0 0 0 0 0 0 2 4 0 0 0 0 0 44 0 1 0 0 2 63 36 18 59 16 13 4 2 0 0 18 96 273 308 220 20 44 26 0 5 96 583 673 883
0 0 0 0 0 0 0 0 0 0 0 0 5 4 0 3 0 0 0 0 0 0 0 0 1 0 1 2 0 0 0 0 0 0 0 73 101 107 0 0 314 647 831
0 0 0 0 0 0 0 0 0 0 0 0 0 0 0 0 0 0 0 0 0 0 0 0 0 0 0 0 0 0 0 0 0 0 0 0 11 187 314 425 42 314 670
0 0 0 0 0 0 0 0 0 0 0 0 0 0 0 0 0 0 0 0 0 0 0 0 0 0 0 0 0 0 0 1 0 0 0 0 0 1 200 357 709 277 441
0 0 0 0 0 0 0 0 0 0 0 0 0 0 0 0 0 0 0 0 0 0 0 0 0 0 0 0 0 0 0 0 3 2 4 7 7 28 229 432 417 514 684
0 0 0 0 0 0 0 0 0 0 0 0 0 0 0 0 0 0 0 0 0 0 0 0 0 0 0 0 0 0 0 0 2 6 4 10 19 18 31 404 315 603 397
0 0 0 0 0 0 0 0 0 0 0 0 0 0 0 0 0 0 0 0 0 0 1 0 0 0 0 0 0 0 0 1 2 12 1 2 8 5 8 40 230 163 178
0 0 0 0 0 0 0 0 0 0 0 0 0 0 0 0 0 0 0 0 0 0 0 1 0 0 0 0 0 0 1 1 5 5 2 19 35 21 11 14 18 31 52
0 0 0 0 0 0 0 0 0 0 0 0 0 0 0 0 0 0 0 0 0 0 0 0 0 0 0 2 18 16 13 5 10 3 41 26 14 4 4 10 10 6 8
0 0 0 0 0 0 0 0 0 0 0 0 0 0 0 0 0 0 0 0 0 0 0 0 0 0 0 1 0 0 1 4 14 18 25 23 32 21 18 12 10 13 12
0 0 0 0 0 0 0 0 0 0 0 0 0 0 0 0 0 0 0 0 0 0 0 0 0 0 0 0 1 12 21 22 21 40 47 21 6 17 9 7 5 2 0
0 0 0 0 0 0 0 0 0 0 0 0 0 0 0 0 0 0 0 0 0 0 2 4 3 4 4 4 7 4 14 10 12 22 26 23 21 19 16 5 4 3 3
0 0 0 0 0 0 0 0 0 0 0 0 0 0 0 0 0 0 0 0 0 1 2 2 3 4 2 4 10 17 7 11 12 17 19 8 45 34 26 23 16 8 13
0 0 0 0 0 0 0 0 0 0 0 0 0 0 0 0 0 0 1 1 2 2 2 5 4 3 3 6 12 14 21 30 25 22 30 50 44 42 31 28 17 11 14
0 0 0 0 0 0 0 0 0 0 0 0 0 0 0 0 0 1 2 2 2 1 2 4 5 3 2 1 8 15 12 21 30 36 34 28 21 18 15 22 30 23 13
0 0 0 0 0 0 0 0 0 0 0 0 0 0 0 0 0 1 2 2 2 1 1 2 2 3 0 2 9 9 14 19 24 21 22 21 18 11 8 22 47 27 20
0 0 0 0 0 0 0 0 0 0 0 0 0 0 0 0 0 0 0 2 2 0 1 1 2 7 5 7 6 6 4 0 1 0 5 7 10 6 11 17 19 24 23
0 0 0 0 0 0 0 0 0 0 0 0 0 0 0 0 0 0 1 2 2 1 3 1 6 6 1 7 4 0 0 0 1 0 2 3 4 5 7 8 10 15 18